Weather History for VTBU - February, 2014

Change the Weather History Date:

Friday, February 14, 2014

  Actual Average Record
Temperature  
Mean Temperature 79 °F -  
Max Temperature 85 °F 87 °F 95 °F (2009)
Min Temperature 73 °F 74 °F 68 °F (2004)
Cooling Degree Days 14    
Growing Degree Days 29 (Base 50)    
Moisture  
Dew Point 72 °F    
Average Humidity 73    
Maximum Humidity 89    
Minimum Humidity 55    
Precipitation  
Precipitation 0.00 in - - ()
Sea Level Pressure  
Sea Level Pressure 29.89 in    
Wind  
Wind Speed 5 mph ()    
Max Wind Speed 12 mph    
Max Gust Speed -    
Visibility 5.1 miles    
Events      
Averages and records for this station are not official NWS values.
T = Trace of Precipitation, MM = Missing Value Source: Averaged Metar Reports

Daily Weather History Graph

Daily Weather History Graph

Search for Another Location

Airport or City:

Trip Planner

Search our weather history database for the weather conditions in past years. The results will help you decide how hot, cold, wet, or windy it might be!

Date:

Astronomy

Feb. 14, 2014 Rise Set
Actual Time 6:38 AM ICT 6:21 PM ICT
Civil Twilight 6:17 AM ICT 6:43 PM ICT
Nautical Twilight 5:51 AM ICT 7:08 PM ICT
Astronomical Twilight 5:26 AM ICT 7:33 PM ICT
Moon 5:51 PM ICT (2/14) 5:49 AM ICT (2/14)
Length of Visible Light 12h 26m
Length of Day
11h 43m
Waxing Gibbous, 99% of the Moon is Illuminated
Feb 14
Waxing Gibbous
Feb 15
Full
Feb 23
Last Quarter
Mar 1
New
Mar 8
First Quarter

Hourly Weather History & Observations

Time (ICT) Temp. Heat Index Dew Point Humidity Pressure Visibility Wind Dir Wind Speed Gust Speed Precip Events Conditions
12:30 AM 78.8 °F - 71.6 °F 78% 29.89 in 5.0 mi SW 6.9 mph - N/A   Scattered Clouds
1:00 AM 80 °F - 73 °F 73% 29.89 in 5 mi South 3.5 mph - -   Mist
1:00 AM 77.0 °F - 71.6 °F 83% 29.89 in 4.3 mi SW 4.6 mph - N/A   Scattered Clouds
1:30 AM 77.0 °F - 71.6 °F 83% 29.89 in 4.3 mi SW 4.6 mph - N/A   Scattered Clouds
2:00 AM 77.0 °F - 71.6 °F 83% 29.89 in 4.3 mi SW 3.5 mph - N/A   Scattered Clouds
2:30 AM 77.0 °F - 71.6 °F 83% 29.89 in 4.3 mi NNE 2.3 mph - N/A   Scattered Clouds
3:00 AM 77.0 °F - 71.6 °F 83% 29.86 in 4.3 mi NE 2.3 mph - N/A   Scattered Clouds
4:00 AM 81 °F - 73 °F 71% 29.86 in 5 mi South 9.2 mph - -   Mist
4:00 AM 75.2 °F - 69.8 °F 83% 29.86 in 4.3 mi NE 2.3 mph - N/A   Scattered Clouds
5:00 AM 73.4 °F - 69.8 °F 88% 29.86 in 3.7 mi North 2.3 mph - N/A   Scattered Clouds
5:30 AM 73.4 °F - 69.8 °F 88% 29.89 in 3.1 mi North 2.3 mph - N/A   Mostly Cloudy
6:00 AM 73.4 °F - 69.8 °F 88% 29.89 in 3.1 mi North 3.5 mph - N/A   Mostly Cloudy
6:30 AM 73.4 °F - 69.8 °F 88% 29.89 in 2.5 mi NNE 3.5 mph - N/A   Mostly Cloudy
7:00 AM 78 °F - 73 °F 80% 29.90 in 5 mi Calm Calm - -   Mist
7:00 AM 73.4 °F - 69.8 °F 88% 29.89 in 2.5 mi NE 3.5 mph - N/A   Mostly Cloudy
7:30 AM 75.2 °F - 71.6 °F 89% 29.92 in 2.5 mi NNE 3.5 mph - N/A   Mostly Cloudy
8:00 AM 77.0 °F - 69.8 °F 78% 29.92 in 2.5 mi NE 3.5 mph - N/A   Mostly Cloudy
8:30 AM 80.6 °F 84.6 °F 71.6 °F 74% 29.92 in 3.7 mi North 3.5 mph - N/A   Mostly Cloudy
9:00 AM 80.6 °F 84.6 °F 71.6 °F 74% 29.95 in 5.0 mi SW 4.6 mph - N/A   Mostly Cloudy
9:30 AM 84.2 °F 89.6 °F 71.6 °F 66% 29.95 in 5.6 mi SW 4.6 mph - N/A   Mostly Cloudy
10:00 AM 83 °F - 73 °F 65% 29.96 in 5 mi SSW 3.5 mph - -   Mist
10:00 AM 86.0 °F 91.8 °F 71.6 °F 62% 29.95 in 6.2 mi SW 6.9 mph - N/A   Mostly Cloudy
10:30 AM 87.8 °F 92.6 °F 69.8 °F 55% 29.95 in 6.2 mi SSW 4.6 mph - N/A   Mostly Cloudy
11:00 AM 86.0 °F 90.4 °F 69.8 °F 58% 29.95 in 5.0 mi SW 6.9 mph - N/A   Mostly Cloudy
11:30 AM 86.0 °F 90.4 °F 69.8 °F 58% 29.95 in 6.2 mi SW 6.9 mph - N/A   Mostly Cloudy
12:00 PM 86.0 °F 90.4 °F 69.8 °F 58% 29.92 in 6.2 mi SW 6.9 mph - N/A   Mostly Cloudy
12:30 PM 87.8 °F 93.8 °F 71.6 °F 58% 29.92 in 6.2 mi SW 6.9 mph - N/A   Mostly Cloudy
1:00 PM 84 °F - 74 °F 65% 29.91 in 5 mi South 6.9 mph - -   Mist
1:00 PM 87.8 °F 95.6 °F 73.4 °F 62% 29.89 in 6.2 mi SW 9.2 mph - N/A   Mostly Cloudy
1:30 PM 87.8 °F 95.6 °F 73.4 °F 62% 29.89 in 6.2 mi SW 9.2 mph - N/A   Mostly Cloudy
2:00 PM 87.8 °F 93.8 °F 71.6 °F 58% 29.86 in 6.2 mi SW 11.5 mph - N/A   Mostly Cloudy
3:00 PM 86.0 °F 91.8 °F 71.6 °F 62% 29.83 in 6.2 mi SSW 9.2 mph - N/A   Scattered Clouds
3:30 PM 87.8 °F 95.6 °F 73.4 °F 62% 29.83 in 6.2 mi SW 9.2 mph - N/A   Scattered Clouds
4:00 PM 84 °F - 75 °F 68% 29.84 in 5 mi South 9.2 mph - -   Mist
4:00 PM 86.0 °F 91.8 °F 71.6 °F 62% 29.83 in 6.2 mi SSW 9.2 mph - N/A   Scattered Clouds
4:30 PM 84.2 °F 89.6 °F 71.6 °F 66% 29.83 in 6.2 mi SW 9.2 mph - N/A   Scattered Clouds
5:00 PM 84.2 °F 89.6 °F 71.6 °F 66% 29.83 in 6.2 mi SSW 9.2 mph - N/A   Scattered Clouds
5:30 PM 80.6 °F 84.6 °F 71.6 °F 74% 29.83 in 6.2 mi SW 11.5 mph - N/A   Mostly Cloudy
6:00 PM 80.6 °F 84.6 °F 71.6 °F 74% 29.86 in 6.2 mi SSW 6.9 mph - N/A   Mostly Cloudy
6:30 PM 80.6 °F 84.6 °F 71.6 °F 74% 29.86 in 5.6 mi SW 4.6 mph - N/A   Mostly Cloudy
7:00 PM 81 °F - 73 °F 71% 29.85 in 5 mi South 9.2 mph - -   Mist
7:00 PM 80.6 °F 84.6 °F 71.6 °F 74% 29.86 in 5.6 mi SW 6.9 mph - N/A   Mostly Cloudy
7:30 PM 78.8 °F - 71.6 °F 78% 29.86 in 5.6 mi SW 4.6 mph - N/A   Mostly Cloudy
8:00 PM 80.6 °F 84.6 °F 71.6 °F 74% 29.86 in 5.6 mi SW 6.9 mph - N/A   Mostly Cloudy
8:30 PM 78.8 °F - 71.6 °F 78% 29.86 in 5.6 mi SW 4.6 mph - N/A   Scattered Clouds
9:00 PM 78.8 °F - 71.6 °F 78% 29.89 in 5.6 mi SSW 4.6 mph - N/A   Scattered Clouds
9:30 PM 80.6 °F 83.9 °F 69.8 °F 70% 29.89 in 5.6 mi SW 4.6 mph - N/A   Mostly Cloudy
10:00 PM 81 °F - 74 °F 73% 29.89 in 5 mi SE 3.5 mph - -   Mist
10:00 PM 80.6 °F 84.6 °F 71.6 °F 74% 29.89 in 5.6 mi SW 4.6 mph - N/A   Scattered Clouds
10:30 PM 80.6 °F 83.9 °F 69.8 °F 70% 29.89 in 5.6 mi SSW 6.9 mph - N/A   Mostly Cloudy
11:00 PM 80.6 °F 85.4 °F 73.4 °F 79% 29.89 in 5.6 mi SSW 4.6 mph - N/A   Mostly Cloudy
11:30 PM 80.6 °F 84.6 °F 71.6 °F 74% 29.89 in 5.6 mi SSW 4.6 mph - N/A   Mostly Cloudy